Overview Statistics Trail Chart Weather Telemetry Raw packets
 

This is the latest recevied weather packets stored in our database for station/object HOWARD. If no packets are shown the sender has not sent any weather packets the latest 10 day(s).

<< 10 11 12 13 14 15 16 >>
Time Temp. Humidity Pressure Rain* Wind** Luminosity Snow
1788476086 1.67° C 88% 1006.9 hPa 1.02 mm - - -
1788475486 1.67° C 87% 1007.1 hPa 0.76 mm - - -
1788474886 1.67° C 87% 1007 hPa 0.51 mm - - -
1788474286 1.67° C 86% 1007.2 hPa 0.51 mm - - -
1788473686 1.67° C 86% 1007.3 hPa 0.51 mm - - -
1788473086 2.22° C 82% 1007.5 hPa 0.25 mm - - -
1788472519 2.78° C 80% 1007.8 hPa 0 mm - - -
1788472486 2.78° C 80% 1007.8 hPa 0 mm - - -
1788471886 3.89° C 76% 1007.7 hPa 0 mm - - -
1788471286 3.89° C 77% 1007.5 hPa 0 mm - - -
1788470686 4.44° C 77% 1007.6 hPa 0 mm - - -
1788470086 4.44° C 73% 1007.4 hPa 0 mm - - -
1788469579 4.44° C 73% 1007.5 hPa 0 mm - - -
1788469486 4.44° C 73% 1007.5 hPa 0 mm - - -
1788468886 3.89° C 75% 1007.4 hPa 0 mm - - -
1788468286 3.89° C 77% 1008 hPa 0 mm - - -
1788467686 3.89° C 79% 1008.2 hPa 0 mm - - -
1788467086 4.44° C 78% 1008.2 hPa 0 mm - - -
1788466486 3.89° C 76% 1008.1 hPa 0 mm - - -
1788465886 4.44° C 76% 1008.1 hPa 0 mm - - -
1788465286 4.44° C 76% 1008.1 hPa 0 mm - - -
1788464687 4.44° C 74% 1008.1 hPa 0 mm - - -
1788464086 5.56° C 70% 1008.2 hPa 0 mm - - -
1788463486 5° C 71% 1008.1 hPa 0 mm - - -
1788462886 6.11° C 76% 1008.1 hPa 0 mm - - -

* Rain latest hour (hover to see other rain measurements)
** Current wind speed in m/s (hover to see current wind gust speed)